Location: Tucson
(32.2217°N, 110.9265°W)
Time: 22:34:41
(UTC-07:00)

ISS - Visible Passes

Search period start: 08 July 2020 00:00
Search period end: 18 July 2020 00:00
Orbit: 417 x 421 km, 51.6° (Epoch: 09 July)

Date Brightness Start Highest point End Pass type
(mag) Time Alt. Az. Time Alt. Az. Time Alt. Az.
11 Jul -0.2 04:40:30 10° NNE 04:41:30 11° NNE 04:42:30 10° NE visible
13 Jul -1.3 04:40:26 10° NNW 04:43:21 27° NE 04:46:14 10° E visible
13 Jul -3.5 21:19:45 10° SW 21:23:04 66° NW 21:26:25 10° NE visible
14 Jul -0.5 03:53:18 10° N 03:55:33 17° NE 03:57:48 10° ENE visible
14 Jul -3.8 20:32:09 10° SSW 20:35:27 60° SE 20:38:45 10° NE visible
14 Jul -0.4 22:10:45 10° WNW 22:12:30 13° NNW 22:14:14 10° N visible
15 Jul -0.1 03:06:43 10° NNE 03:07:41 11° NNE 03:08:37 10° NE visible
15 Jul -3.8 04:41:31 10° NW 04:44:52 86° SW 04:48:12 10° SE visible
15 Jul -1.0 21:22:02 10° W 21:24:39 21° NW 21:27:17 10° NNE visible
16 Jul -2.7 03:53:56 10° NW 03:57:11 47° NE 04:00:25 10° ESE visible
16 Jul -1.9 20:33:46 10° WSW 20:36:52 35° NW 20:39:59 10° NNE visible
17 Jul -1.5 03:06:32 10° NNW 03:09:26 26° NE 03:12:18 10° E visible
17 Jul -2.5 04:43:29 10° WNW 04:46:07 21° SW 04:48:43 10° S visible
